• Processing (Info)

  • MPEC 2019-V92 : 2019 VJ3

    The following Minor Planet Electronic Circular may be linked-to from your own Web pages, but must not otherwise be redistributed electronically.

    A form allowing access to any MPEC is at the bottom of this page.


    Read MPEC 2019-V91 Read MPEC 2019-V93


    M.P.E.C. 2019-V92                              Issued 2019 November 6, 22:12 UT
    
         The Minor Planet Electronic Circulars contain information on unusual
             minor planets and routine data on comets.  They are published
        on behalf of Division F of the International Astronomical Union by the
              Minor Planet Center, Smithsonian Astrophysical Observatory,
                              Cambridge, MA 02138, U.S.A.
    
                 Prepared using the Tamkin Foundation Computer Network
    
                                  MPC@CFA.HARVARD.EDU
                URL https://www.minorplanetcenter.net/    ISSN 1523-6714
    
                                    2019 VJ3                                 
    
    
    Observations:
         K19V03J  C2019 11 02.57662804 34 46.367+03 49 20.91         20.2 GVEV092F51
         K19V03J  C2019 11 02.58841104 34 42.868+03 52 13.92         20.3 GVEV092F51
         K19V03J  C2019 11 02.59996604 34 39.452+03 55 03.37               VEV092F51
         K19V03J* C2019 11 05.38927 04 21 08.91 +15 28 28.5          20.8 GVEV092G96
         K19V03J  C2019 11 05.39433 04 21 07.28 +15 29 43.9          20.3 GVEV092G96
         K19V03J  C2019 11 05.39938 04 21 05.54 +15 31 00.3          20.4 GVEV092G96
         K19V03J  C2019 11 05.40446 04 21 03.83 +15 32 15.9          20.6 GVEV092G96
         K19V03J  C2019 11 05.45010904 20 48.51 +15 43 32.0          19.9 GVEV092H01
         K19V03J  C2019 11 05.45353204 20 47.38 +15 44 22.7          20.1 GVEV092H01
         K19V03J  C2019 11 05.46405404 20 43.91 +15 46 58.9          20.3 GVEV092H01
         K19V03J  C2019 11 05.47099504 20 41.62 +15 48 41.8          20.2 GVEV092H01
         K19V03J KC2019 11 06.13635704 17 13.74 +18 32 39.0          20.4 GVEV092J95
         K19V03J KC2019 11 06.15016604 17 09.08 +18 36 01.3          20.5 GVEV092J95
         K19V03J KC2019 11 06.16258104 17 04.93 +18 39 03.0          20.4 GVEV092J95
         K19V03J  C2019 11 06.22103 04 16 51.19 +18 53 37.5                VEV092G96
         K19V03J  C2019 11 06.22143 04 16 51.01 +18 53 44.4          20.5 GVEV092G96
         K19V03J  C2019 11 06.22184 04 16 50.86 +18 53 50.3          20.3 GVEV092G96
         K19V03J  C2019 11 06.22224 04 16 50.75 +18 53 55.5          20.8 GVEV092G96
    
    Observer details:
    F51 Pan-STARRS 1, Haleakala.  Observers J. Bulger, K. Chambers, T. Lowe, E. 
       Magnier, A. Schultz, M. Willman.  Measurers S. Chastel, M. Huber, Y. 
       Ramanjooloo, R. Wainscoat, R. Weryk.  1.8-m Ritchey-Chretien + CCD.
    G96 Mt. Lemmon Survey.  Observer E. J. Christensen.  Measurers E. J. 
       Christensen, G. A. Farneth, D. C. Fuls, A. R. Gibbs, A. D. Grauer, H. 
       Groeller, R. A. Kowalski, S. M. Larson, G. J. Leonard, T. A. Pruyne, D. 
       Rankin, R. L. Seaman, F. C. Shelly, K. W. Wierzchos.  1.5-m reflector + 10K 
       CCD.
    H01 Magdalena Ridge Observatory, Socorro.  Observers W. H. Ryan, E. V. Ryan.  
        Measurer W. H. Ryan.  2.4-m f/8.9 Ritchey-Chretien + CCD.
    J95 Great Shefford.  Observer P. Birtwhistle.  0.41-m f/6.3 Schmidt-Cassegrain 
       + CCD.
    
    Orbital elements:
    2019 VJ3                                                 Earth MOID = 0.1203 AU
    Epoch 2019 Apr. 27.0 TT = JDT 2458600.5                 Bell
    M 300.81397              (2000.0)            P               Q
    n   0.34908723     Peri.  334.89840     +0.89122553     -0.27411685
    a   1.9976225      Node    46.30904     +0.45220669     +0.59852829
    e   0.4579143      Incl.   29.98319     -0.03501662     +0.75274420
    P   2.82           H   23.7           G   0.15           U   8
    Residuals in seconds of arc
    191102 F51  0.0   0.2-    191105 G96  0.5-  0.4+    191106 J95  0.1-  0.1+
    191102 F51  0.0   0.1+    191105 H01  0.1-  0.1+    191106 J95  0.2-  0.1-
    191102 F51  0.0   0.1+    191105 H01  0.1-  0.0     191106 G96  0.6+  0.8-
    191105 G96  0.3-  0.9-    191105 H01  0.1-  0.1+    191106 G96  0.0   0.2+
    191105 G96  0.5+  0.8-    191105 H01  0.2-  0.1+    191106 G96  0.2-  0.0
    191105 G96  0.3-  0.4+    191106 J95  0.5+  0.3+    191106 G96  0.1+  0.7-
    
    Ephemeris:
    2019 VJ3                 a,e,i = 2.00, 0.46, 30                  q = 1.0829
    Date    TT    R. A. (2000) Decl.     Delta      r    Elong.  Phase     V
    2019 10 07    05 34 14.8 -48 21 04   0.3031  1.0853    98.2    65.7    23.6
    ...
    2019 10 22    05 13 48.3 -31 07 20   0.1875  1.0869   114.6    56.4    22.3
    ...
    2019 10 30    04 49 41.8 -09 49 41   0.1419  1.0982   135.0    39.7    21.2
    ...
    2019 11 05    04 23 09.1 +13 51 43   0.1308  1.1112   154.6    22.5    20.6
    2019 11 06    04 17 58.6 +17 59 36   0.1316  1.1138   157.0    20.4    20.5
    2019 11 07    04 12 35.8 +22 02 22   0.1332  1.1164   158.7    18.8    20.5
    ...
    2019 11 13    03 36 32.0 +42 25 41   0.1576  1.1342   154.7    21.9    21.0
    ...
    2019 11 21    02 43 57.5 +57 30 21   0.2156  1.1629   140.7    32.6    22.1
    ...
    2019 12 06    01 32 56.0 +66 16 31   0.3544  1.2296   126.5    40.1    23.5
    
    A. U. Tomatic                (C) Copyright 2019 MPC           M.P.E.C. 2019-V92
    


    Read MPEC 2019-V91 Read MPEC 2019-V93


    MPEC number:

    Enter an MPEC number in one of the following forms:

    • 1997-B01 (the full form)
    • J97B01 (the packed version of the full form)
    • B01 (the abbreviated form)